星链-36529(STARLINK-36529)

导读 | 豆包AI

STARLINK-36529是美国SpaceX公司星链(Starlink)卫星互联网项目中的一颗低轨卫星,于2026年1月14日发射入轨。星链项目旨在通过近地轨道星座为全球提供高速低延迟宽带互联网服务,尤其覆盖偏远地区。该卫星继承星链技术架构,运行在数百公里近地轨道,与其他卫星协同工作,推进星链全球覆盖目标,进一步扩大星座服务规模,提升网络覆盖密度,助力实现全球无缝互联的卫星互联网愿景。

基本信息
目录编号:
67457
目录名称:
STARLINK-36529
国际标识:
2026-008N
轨道中心:
EARTH
卫星名称:
星链-36529
卫星全名:
星链-36529(STARLINK-36529)
卫星状态:
在轨 (已飞行131 天)
发射日期:
2026-01-14 UTC
国别 :
美国 (US)
星等 :
--
轨道信息
数据来源 国际轨道数据 AOE轨道数据
星历时间 2026-05-25T08:28:05+0800
8小时前
查看轨道信息
2026-05-23T22:00:00+0800
1天前
查看轨道信息
半长轴 6861.134km 6861.056km
偏心率 0.0002723 0.0003153
轨道倾角 43.005° 43.015°
近地点辐角 269.385° 268.375°
升交点赤经 134.352° 142.461°
平近点角 90.669° 104.570°
近地点 481.128km 480.755km
远地点 484.866km 485.083km
周期 94.266分钟 94.264分钟
每日圈数 15.275974 15.276236
详细信息
固有亮度:
5
最大亮度:
2.5
卫星平台:
Starlink V1.0
覆盖范围:
全球
运营商:
太空探索技术公司
运营商所在国:
美国
制造商(研发单位):
太空探索技术公司
制造商所在国:
美国
使用方式:
暂无
卫星简介
Starlink 计划是 SpaceX 推出的全球卫星互联网项目,通过发射低轨道卫星,为全球尤其是偏远地区提供高速、低延迟的互联网服务。自 2019 年起,Starlink 已部署数千颗卫星,旨在缩小全球数字鸿沟,推动互联网普及。该项目还为军事、航空等行业提供通信支持,带来广泛经济效益。
2D轨道图
3D轨道图
轨道高度分析图
轨道倾角分析图
轨道综合分析图
查看轨道综合分析图